Voltar ao catálogo

BIRKELAND

AtivoCiênciaSSO
NORAD 55015·PAYLOAD·🇳🇴 Norway

Lançado Jan 3, 2023 de Cape Canaveral Space Force Station

Loading…

Próximas Passagens (próximas 24 horas)

TLE

AtualizadoSource: Space-Track

Época: Sep 14, 2026, 21:36 UTC

1 55015U 23001G   26257.90006343  .00008695  00000-0  20959-3 0  9995
2 55015  97.3261 326.1461 0007635 132.8722 227.3167 15.41452154206160

Acompanhe BIRKELAND em tempo real com AllMySat

Download on the App Store